sat.trackr.live / text

‹ back to catalog

STARLINK-11533 [DTC]

NORAD 62836 · 2025-019H

PAYLOAD ACTIVE UNKNOWN

§ Identity

Operator
Country
US
Launch date
2025-01-27
Launch site
AFETR
Launch vehicle
Mass (kg)
RCS (m²)

Purposes: comms

External: N2YO · Heavens-Above · Gunter

§ Orbital elements

Epoch: 2026-05-25T04:54:30.583296Z

Period
91.67 min
Inclination
42.9993°
Eccentricity
0.0001198
Mean motion
15.70908380 rev/d
Perigee alt
355.5 km
Apogee alt
357.1 km
Semi-major
6,734.4 km
B*
1.3370e-3
RAAN
204.8543°
Arg perigee
266.9258°
Mean anomaly
93.1473°
Rev number
7,591

§ Raw data

STARLINK-11533 [DTC]1 62836U 25019H   26145.20452064  .00175274  00000+0  13370-2 0  99942 62836  42.9993 204.8543 0001198 266.9258  93.1473 15.70908380 75916

JSON: /api/v1/satellites/62836 · /tle

For live sub-satellite position, see the globe view (requires WebGL).

§ Visibility from observer

Set your observer location to see the next 7 days of passes ≥ 10°. The values pass through the URL so the page stays shareable.

No JS? Fill the form by hand. The geolocation button needs JavaScript.